Regional Weather Roundup
Issued by NWS

Home | Current Version | Previous Version | Graphics & Text | Print | Product List | Glossary On
Versions: 1 2 3 4 5 6 7 8 9 10 11 12 13 14 15 16 17 18 19 20 21 22 23 24 25 26 27 28 29 30 31 32 33 34 35 36 37 38 39 40 41 42 43 44 45 46 47 48 49 50
000
ASUS45 KABQ 022310
RWRNM
NEW MEXICO REGIONAL WEATHER ROUNDUP
NATIONAL WEATHER SERVICE ALBUQUERQUE NM
500 PM MDT SUN AUG 02 2015

NOTE: "FAIR" MEANS FEW OR NO CLOUDS BELOW 12,000 FEET AGL WITH NO
       SIGNIFICANT WEATHER OR OBSTRUCTIONS TO VISION.

      THIS PRODUCT IS RELEASED AS TWO VERSIONS.  ONE VERSION NEAR
      THE TOP OF THE HOUR CONTAINING PRELIMINARY DATA FROM ALBUQUERQUE
      AND OTHER STATIONS.  A FINAL VERSION WITH ADDITIONAL DATA IS
      ISSUED ABOUT 10 MINUTES AFTER THE HOUR.

NMZ501-503-504-510>518-030000-
NORTHWEST PLATEAU/NORTHCENTRAL MOUNTAINS

CITY           SKY/WX    TMP DP  RH WIND       PRES   REMARKS
FARMINGTON     CLOUDY    76  56  49 NW13G24   30.09F
LOS ALAMOS     CLOUDY    71  53  53 S5        30.23F
SANTA FE       CLOUDY    77  49  37 NE9       30.15F
TAOS           CLOUDY    59  48  67 NE14      30.26S
ANGEL FIRE     LGT RAIN  58  55  87 N9        30.36R

$$
NMZ402-403-502-505>509-030000-
WESTCENTRAL MOUNTAINS/SOUTHWEST MOUNTAINS

CITY           SKY/WX    TMP DP  RH WIND       PRES   REMARKS
GALLUP         PTSUNNY   80  48  32 VRB6      30.14F
GRANTS         CLOUDY    74  58  58 E10       30.20R THUNDER
SILVER CITY      N/A     82  55  39 E6        30.11F

$$
NMZ407-409-411-412-030000-
SOUTHERN DESERTS

CITY           SKY/WX    TMP DP  RH WIND       PRES   REMARKS
LORDSBURG      FAIR      90  54  29 NW8G17    30.00F
DEMING         MOSUNNY   92  53  26 W7        29.99F
LAS CRUCES     PTSUNNY   90  54  29 CALM      30.02S
HOLLOMAN AFB   MOSUNNY   96  51  21 W16       29.94F
ALAMOGORDO     MOSUNNY   93  48  21 S8        29.97F
T OR C         PTSUNNY   84  55  36 NW6       30.06F

$$
NMZ519>523-030000-
CENTRAL VALLEYS/CENTRAL HIGHLANDS

CITY           SKY/WX    TMP DP  RH WIND       PRES   REMARKS
ALBUQUERQUE    CLOUDY    81  57  43 SW8       30.11F
DOUBLE EAGLE   PTSUNNY   77  57  50 W6        30.14F
MORIARTY ARPT    N/A     81  49  32 W8        30.16S
CLINES CORNERS PTSUNNY   76  54  46 W12       30.19F
BELEN          CLOUDY    69  58  68 SW14      30.11F
SOCORRO        FAIR      75  61  61 N3        30.08F

$$
NMZ524>526-539-540-030000-
SOUTHCENTRAL MOUNTAINS

CITY           SKY/WX    TMP DP  RH WIND       PRES   REMARKS
RUIDOSO          N/A    N/A N/A N/A MISG        N/A

$$
NMZ527>531-030000-
NORTHEAST HIGHLANDS/NORTHEAST PLAINS

CITY           SKY/WX    TMP DP  RH WIND       PRES   REMARKS
RATON          NOT AVBL
CLAYTON        CLOUDY    82  62  50 S7        30.04F

$$
NMZ532>537-030000-
EASTCENTRAL PLAINS

CITY           SKY/WX    TMP DP  RH WIND       PRES   REMARKS
TUCUMCARI      SUNNY     92  60  34 S7        29.95F
CANNON AFB     SUNNY     91  57  31 NW5       29.99S
CLOVIS AIRPORT MOSUNNY   88  61  40 SE9       30.01S

$$
NMZ028-029-538-030000-
SOUTHEAST PLAINS

CITY           SKY/WX    TMP DP  RH WIND       PRES   REMARKS
ROSWELL        CLOUDY    92  54  27 CALM      29.94F
ARTESIA        PTSUNNY   95  55  26 NW7       29.93F
CARLSBAD       PTSUNNY   98  53  22 S10       29.90F HX  96
HOBBS          MOSUNNY   93  61  33 S9        29.94F


$$


USA.gov is the U.S. government's official web portal to all federal, state and local government web resources and services.